Weather in Innopolis

Russia / Republic of Tatarstan     55°45′07″N   48°44′40″E
В апреле 2022 года жителям России запретили посещать сайт meteo.paraplan.net по решению Генеральной прокуратуры. Аудитория сайта уменьшилась в 10 раз. Владельцы сайта не видят смысла в поддержке погодного сервера в таких условиях. Сайт будет закрыт в октябре.
temp.,
°C
wind,
m/s
gust,
m/s
humid.,
%
clouds,
%
prec.,
mm/h
press.,
hPa
HPBL,
m
5 october, wed
wed500:00+8s71175100 0.6 1024649
03:00+7sse81490100 5.1 1023909
06:00+7sse71483100 0.4 1022726
09:00+8sse6137111 0.4 1021541
12:00+10s71286100 0.1 1021794
15:00+11s6117449 0.2 1019677
18:00+9sse4117438 0.0 1019307
21:00+7sse411815 0.1 1018255
6 october, thu
thu600:00+8s388895 0.0 1017200
03:00+9ssw2789100 0.1 1016249
06:00+8wsw3790100 0.1 1016403
09:00+9w467516 0.2 1016652
12:00+10w5564100 0.3 10151140
15:00+10w566586 0.9 10161090
18:00+8w4779100 0.3 1016370
21:00+7wsw378686 0.4 1017386
7 october, fri
fri700:00+6w379228 0.1 1017241
03:00+4wsw36945 0.1 1017141
06:00+4ssw389358 0.0 1015160
09:00+6ssw51283100 0.3 1014392
12:00+8sw61391100 0.6 1012674
15:00+10wnw81384100 0.8 1012907
18:00+10wnw71377100 0.1 1014709
21:00+9wnw71484100 0.3 1015775
8 october, sat
sat800:00+9wnw7138489 0.4 1016687
03:00+9wnw71181100 0.4 1018870
06:00+8wnw51086100 0.1 1020785
09:00+10wnw58725 0.1 1021760
12:00+12wnw68615 0.0 1022964
15:00+13w58615 0.0 10211091
18:00+9wsw38815 0.0 1022141
21:00+8sw388923 0.0 1022159
9 october, sun
sun900:00+7sw389228 0.0 1022170
03:00+7sw4992100 0.0 1022197
06:00+6sw4119242 0.0 1021229
09:00+10sw61171100 0.0 1021425
12:00+14sw7105790 0.0 1020696
15:00+13sw61159100 0.0 1020714
18:00+11ssw51368100 0.0 1020342
21:00+9ssw41471100 0.0 1019328